Starlink 1612

operational
NORAD ID: 46164 Int'l Des: 2020-057 Owner: SPXS Country: US Constellation: starlink
LEOCIRCULAR

Starlink 1612について

説明を読み込み中...

リアルタイム位置

3D地球を読み込み中...

次回通過

高度履歴

Altitude vs Time

uPlot chart will show altitude changes over time

軌道要素

1 46164U 20057AZ 25259.46168457 .00061676 00000-0 21688-2 0 9992
2 46164 53.0529 329.2114 0008484 318.7453 41.2904 15.28766556281769
Epoch: Sep 16, 2025 • Age: 54 hours

現在のステータス

高度 487.5 km
速度 7.62 km/s
衛星直下点 38.52°N, 150.4°W
打ち上げ日 Aug 18, 2020
運用期間 5 years
タイプ internet

技術仕様

分類 Payload
質量 260.00 kg
乾燥質量 248.00 kg
総質量 260.00 kg
長さ 0.20 m
直径 2.80 m
スパン 9.00 m
形状 Box + pan
製造者 SPXS
バスタイプ Starlink
フェーズステータス In Orbit
所有者/国 SPXS/US

大規模コンステレーション

Loading constellations...